Location: Burgerwiesen
(48.6500°N, 15.6167°E)
Time: 16:15:57
(UTC+00:00)

Meteor 1-16 Rocket - Pass Details

Date: 09 April 2020
Orbit: 790 x 907 km, 81.2° (Epoch: 02 June)

Event Time Altitude Azimuth Distance (km) Brightness Sun altitude
Rises 18:31:08 0° 194° (SSW) 3,315 7.2 -8.8°
Reaches altitude 10° 18:33:28 10° 196° (SSW) 2,401 6.5 -9.1°
Maximum altitude 18:38:55 77° 282° (WNW) 861 4.4 -9.9°
Drops below altitude 10° 18:44:34 10° 9° (N) 2,496 6.9 -10.8°
Sets 18:47:03 0° 11° (NNE) 3,455 7.6 -11.1°
